Airport Information

KYKM - Yakima Air Terminal McAllister Field Airport

KYKM 182254Z 09006KT 10SM CLR 29/11 A2972 RMK OBS MN


  • General Information

  • Coordinates: N 46°34'5"/ W 120°32'38"
  • Location: N/A
  • Surveyed Elevation: 1095 MSL

Operations

Flow Name Active Runways Conditions

Green background denotes normal operations.


Common Frequencies

Callsign Frequency Position Name

More at the Document Center


Charts